USA 176 (DSP 22)

Last updated on Thu Aug 13 2026 00:02:57 GMT+0000 (Coordinated Universal Time)

1 28158U 04004A 26224.11668924 -.00000311 00000+0 00000+0 0 9999 2 28158 12.1370 25.6459 0002328 301.8215 346.0159 1.00275574 33494
UTC large
Height (km)
Speed (km/s)
/
Latitude / Longitude
Inclination (degrees)
Orbital Period (minutes)
Azimuth
Elevation
Range (km)
Doppler Factor

Next 0 passes for location: London (51.5072 / 0.1276)

No passes found over London.
USA 176 (DSP 22)